Regional Weather Roundup
Issued by NWS

Home | Current Version | Previous Version | Text Only | Print | Product List | Glossary On
Versions: 1 2 3 4 5 6 7 8 9 10 11 12 13 14 15 16 17 18 19 20 21 22 23 24 25 26 27 28 29 30 31 32 33 34 35 36 37 38 39 40 41 42 43 44 45 46 47 48 49 50
000
ASUS43 KLMK 222110
RWRKY
KENTUCKY REGIONAL WEATHER ROUNDUP
NATIONAL WEATHER SERVICE LOUISVILLE KY
500 PM EDT TUE MAY 22 2018

NOTE "FAIR" INDICATES FEW OR NO CLOUDS BELOW 12,000 FEET
WITH NO SIGNIFICANT WEATHER AND/OR OBSTRUCTIONS TO VISIBILITY.

KYZ001>023-026-027-061>063-070>075-222200-
WESTERN AND SOUTH CENTRAL KENTUCKY

CITY           SKY/WX    TMP DP  RH WIND       PRES   REMARKS
PADUCAH        FAIR      87  67  51 NW5       29.98F HX  90
HENDERSON      NOT AVBL
OWENSBORO      FAIR      85  71  63 S6        29.98F HX  90
HOPKINSVILLE   FAIR      78  71  79 N10       30.02R
BOWLING GREEN  LGT RAIN  72  68  87 CALM      30.01F
GLASGOW        FAIR      69  68  96 CALM      30.02F
$$

KYZ024-025-028>034-038-045-046-053-222200-
NORTH CENTRAL KENTUCKY

CITY           SKY/WX    TMP DP  RH WIND       PRES   REMARKS
LOUISVILLE/SDF FAIR      83  70  64 S10G16    29.97F
LOUISVILLE/LOU FAIR      83  72  69 SW12      29.98F
FORT KNOX      FAIR      79  70  74 SW6       30.01F
$$

KYZ035>037-039>044-047>052-055>060-089>105-222200-
NORTHEAST KENTUCKY

CITY           SKY/WX    TMP DP  RH WIND       PRES   REMARKS
LEXINGTON      FAIR      78  67  68 SW12      30.02F
COVINGTON      FAIR      82  69  64 S10       29.97F
FRANKFORT      FAIR      81  69  67 SW9       29.99F
$$

KYZ054-064>069-076>088-106>120-222200-
SOUTHEAST KENTUCKY

CITY           SKY/WX    TMP DP  RH WIND       PRES   REMARKS
JACKSON        PTSUNNY   74  69  85 CALM      30.07F
LONDON         FAIR      72  69  90 CALM      30.06F
SOMERSET       NOT AVBL
MIDDLESBORO    CLOUDY    78  69  73 NE5       30.06F
MONTICELLO     CLOUDY    75  65  70 W12       30.07R
$$





USA.gov is the U.S. government's official web portal to all federal, state and local government web resources and services.